CFG7MB EDDK-LFSB

Flight info

Callsign CFG7MB
Flight time N/A
Altitude 31000
Route KUMIK8F KUMIK Y854 BOMBI T721 SUNEG T715 RIGVI
Aircraft A339/H-SADE1E2E3GHIJ3J5M1P2RWXY/LB2D1

Departure

Time 2026-04-30 14:29
Airport Cologne Bonn Airport (EDDK)

Arrival

Time N/A
Airport EuroAirport Basel–Mulhouse–Freiburg (LFSB)
Time Latitude Longitude Altitude Speed Heading
2026-04-30 13:56 50.87548 7.12104 238 ft 0 kts 208°
2026-04-30 14:13 50.87563 7.12117 238 ft 4 kts 199°
2026-04-30 14:13 50.87587 7.12128 238 ft 4 kts 175°
2026-04-30 14:13 50.87609 7.12125 238 ft 4 kts 156°
2026-04-30 14:13 50.87626 7.12109 238 ft 4 kts 118°
2026-04-30 14:14 50.87635 7.12081 238 ft 0 kts 118°
2026-04-30 14:17 50.87635 7.12082 238 ft 1 kts 117°
2026-04-30 14:17 50.87630 7.12096 238 ft 3 kts 118°
2026-04-30 14:17 50.87616 7.12139 238 ft 5 kts 118°
2026-04-30 14:17 50.87597 7.12194 238 ft 6 kts 118°
2026-04-30 14:18 50.87574 7.12256 238 ft 7 kts 119°
2026-04-30 14:18 50.87551 7.12328 238 ft 8 kts 115°
2026-04-30 14:18 50.87594 7.12456 238 ft 8 kts 24°
2026-04-30 14:19 50.87722 7.12527 238 ft 12 kts 18°
2026-04-30 14:19 50.87804 7.12571 238 ft 13 kts 18°
2026-04-30 14:19 50.87895 7.12617 238 ft 14 kts 20°
2026-04-30 14:20 50.87975 7.12711 240 ft 12 kts 54°
2026-04-30 14:20 50.87987 7.12750 242 ft 0 kts 65°
2026-04-30 14:27 50.88002 7.12815 244 ft 13 kts 75°
2026-04-30 14:27 50.88004 7.12943 245 ft 12 kts 103°
2026-04-30 14:28 50.87971 7.13016 245 ft 0 kts 136°
2026-04-30 14:28 50.87968 7.13020 245 ft 8 kts 136°
2026-04-30 14:29 50.87018 7.14398 295 ft 159 kts 139°
2026-04-30 14:29 50.85702 7.16396 1626 ft 161 kts 133°
2026-04-30 14:30 50.82554 7.20734 3835 ft 209 kts 137°
2026-04-30 14:31 50.81094 7.24529 5168 ft 206 kts 101°
2026-04-30 14:31 50.80886 7.29251 6143 ft 232 kts 99°
2026-04-30 14:31 50.80632 7.31881 6458 ft 249 kts 100°
2026-04-30 14:32 50.80101 7.37351 7852 ft 254 kts 99°
2026-04-30 14:32 50.79861 7.40144 8530 ft 258 kts 97°
2026-04-30 14:32 50.79633 7.42965 9248 ft 261 kts 97°
2026-04-30 14:33 50.79406 7.45828 9964 ft 264 kts 96°
2026-04-30 14:33 50.78948 7.51759 10817 ft 290 kts 96°
2026-04-30 14:33 50.78693 7.55031 10987 ft 310 kts 96°
2026-04-30 14:34 50.78508 7.58472 11413 ft 318 kts 91°
2026-04-30 14:34 50.78627 7.61980 12051 ft 321 kts 83°
2026-04-30 14:34 50.79012 7.65453 12650 ft 324 kts 79°
2026-04-30 14:34 50.79423 7.68979 13248 ft 328 kts 80°
2026-04-30 14:35 50.80096 7.74943 14165 ft 334 kts 80°
2026-04-30 14:35 50.80631 7.79765 14582 ft 337 kts 80°
2026-04-30 14:35 50.81035 7.83420 15183 ft 338 kts 80°
2026-04-30 14:36 50.81441 7.87101 15734 ft 341 kts 80°
2026-04-30 14:36 50.81850 7.90808 16304 ft 343 kts 80°
2026-04-30 14:36 50.82263 7.94558 16854 ft 346 kts 80°
2026-04-30 14:36 50.82659 7.98168 17348 ft 350 kts 80°
2026-04-30 14:37 50.82861 8.01919 17854 ft 354 kts 92°
2026-04-30 14:37 50.82337 8.05747 18393 ft 360 kts 109°
2026-04-30 14:37 50.81081 8.09212 18886 ft 369 kts 126°
2026-04-30 14:37 50.79167 8.11967 19366 ft 377 kts 143°
2026-04-30 14:38 50.76928 8.14181 19798 ft 382 kts 144°
2026-04-30 14:38 50.74697 8.16380 20271 ft 384 kts 144°
2026-04-30 14:38 50.72424 8.18641 20747 ft 387 kts 144°
2026-04-30 14:38 50.70144 8.20924 21209 ft 390 kts 144°
2026-04-30 14:39 50.67833 8.23243 21707 ft 393 kts 144°
2026-04-30 14:39 50.65513 8.25573 22190 ft 396 kts 144°
2026-04-30 14:39 50.63182 8.27909 22675 ft 400 kts 144°
2026-04-30 14:40 50.58452 8.32644 23668 ft 406 kts 144°
2026-04-30 14:40 50.56037 8.35057 24115 ft 409 kts 144°
2026-04-30 14:40 50.53628 8.37459 24563 ft 411 kts 144°
2026-04-30 14:40 50.51206 8.39872 24950 ft 415 kts 144°
2026-04-30 14:41 50.48781 8.42285 25370 ft 417 kts 144°
2026-04-30 14:41 50.46316 8.44734 25802 ft 419 kts 144°
2026-04-30 14:41 50.43846 8.47188 26219 ft 422 kts 143°
2026-04-30 14:41 50.41360 8.49652 26641 ft 424 kts 143°
2026-04-30 14:42 50.38854 8.52132 27054 ft 427 kts 143°
2026-04-30 14:42 50.36265 8.54490 27439 ft 431 kts 148°
2026-04-30 14:42 50.33614 8.56696 27836 ft 434 kts 148°
2026-04-30 14:42 50.30972 8.58907 28255 ft 435 kts 148°
2026-04-30 14:43 50.28294 8.61150 28622 ft 438 kts 148°
2026-04-30 14:43 50.25602 8.63405 29000 ft 440 kts 148°
2026-04-30 14:43 50.22903 8.65663 29377 ft 443 kts 148°
2026-04-30 14:43 50.20178 8.67939 29746 ft 445 kts 148°
2026-04-30 14:44 50.17431 8.70230 30110 ft 447 kts 148°
2026-04-30 14:44 50.14676 8.72525 30451 ft 450 kts 148°
2026-04-30 14:44 50.11916 8.74822 30775 ft 452 kts 148°
2026-04-30 14:44 50.09133 8.77134 31086 ft 454 kts 148°
2026-04-30 14:45 50.06308 8.79389 31296 ft 458 kts 151°
2026-04-30 14:45 50.03299 8.81220 31349 ft 469 kts 158°
2026-04-30 14:45 49.96992 8.84165 31350 ft 477 kts 159°
2026-04-30 14:46 49.90622 8.87103 31352 ft 478 kts 162°
2026-04-30 14:46 49.87318 8.87929 31352 ft 484 kts 173°
2026-04-30 14:46 49.85083 8.87986 31362 ft 486 kts 177°
2026-04-30 14:47 49.77165 8.87830 31346 ft 486 kts 178°
2026-04-30 14:47 49.70402 8.87657 31337 ft 486 kts 178°
2026-04-30 14:48 49.63669 8.87484 31334 ft 486 kts 178°
2026-04-30 14:48 49.56901 8.87315 31327 ft 486 kts 178°
2026-04-30 14:49 49.50167 8.87150 31322 ft 486 kts 178°
2026-04-30 14:49 49.43413 8.86986 31318 ft 486 kts 178°
2026-04-30 14:50 49.33314 8.85650 31314 ft 492 kts 194°
2026-04-30 14:51 49.27196 8.80863 31308 ft 498 kts 212°
2026-04-30 14:51 49.24345 8.77845 31308 ft 498 kts 213°
2026-04-30 14:52 49.15802 8.68784 31301 ft 498 kts 212°
2026-04-30 14:52 49.08165 8.60886 31290 ft 498 kts 212°
2026-04-30 14:53 48.99527 8.52015 31285 ft 498 kts 212°
2026-04-30 14:54 48.88072 8.40306 30900 ft 492 kts 212°
2026-04-30 14:55 48.82445 8.34575 29801 ft 484 kts 212°
2026-04-30 14:55 48.79654 8.31739 29099 ft 480 kts 212°
2026-04-30 14:55 48.73274 8.25274 27579 ft 469 kts 212°
2026-04-30 14:56 48.68792 8.20745 26475 ft 462 kts 212°
2026-04-30 14:56 48.63489 8.15395 25183 ft 455 kts 212°
2026-04-30 14:57 48.60860 8.12745 24574 ft 451 kts 212°
2026-04-30 14:57 48.55671 8.07534 23284 ft 444 kts 212°
2026-04-30 14:58 48.50572 8.02424 21941 ft 435 kts 212°
2026-04-30 14:58 48.48087 7.99937 21251 ft 431 kts 212°
2026-04-30 14:58 48.43155 7.95014 19975 ft 421 kts 212°
2026-04-30 14:59 48.38273 7.90277 18655 ft 412 kts 206°
2026-04-30 15:00 48.30198 7.87322 17694 ft 402 kts 183°
2026-04-30 15:00 48.24699 7.86417 17174 ft 393 kts 184°
2026-04-30 15:01 48.19304 7.85118 16662 ft 396 kts 197°
2026-04-30 15:01 48.16860 7.83186 16422 ft 401 kts 214°
2026-04-30 15:01 48.13527 7.76693 15912 ft 395 kts 249°
2026-04-30 15:02 48.12950 7.72688 15669 ft 397 kts 267°
2026-04-30 15:02 48.13060 7.68591 15426 ft 399 kts 277°
2026-04-30 15:03 48.13459 7.56429 14708 ft 386 kts 269°
2026-04-30 15:03 48.12230 7.48636 14208 ft 389 kts 239°
2026-04-30 15:04 48.08936 7.42339 13715 ft 380 kts 229°
2026-04-30 15:04 48.03930 7.33187 12937 ft 376 kts 230°
2026-04-30 15:05 47.98975 7.24091 12177 ft 373 kts 230°
2026-04-30 15:06 47.95746 7.18182 11672 ft 366 kts 230°
2026-04-30 15:06 47.92499 7.12250 11177 ft 366 kts 230°
2026-04-30 15:07 47.89322 7.06456 10675 ft 362 kts 230°
2026-04-30 15:07 47.86176 7.00736 10458 ft 345 kts 230°
2026-04-30 15:08 47.83275 6.95468 10135 ft 312 kts 230°
2026-04-30 15:08 47.79295 6.88256 9446 ft 293 kts 230°
2026-04-30 15:09 47.76698 6.83559 9183 ft 295 kts 229°
2026-04-30 15:09 47.74105 6.78894 8929 ft 291 kts 228°
2026-04-30 15:10 47.70645 6.76289 8671 ft 283 kts 180°
2026-04-30 15:11 47.66170 6.83756 8183 ft 273 kts 90°
2026-04-30 15:11 47.66135 6.89250 7971 ft 254 kts 92°
2026-04-30 15:12 47.65833 6.96607 7284 ft 232 kts 95°
2026-04-30 15:13 47.65582 7.01468 7050 ft 235 kts 95°
2026-04-30 15:14 47.65061 7.11051 6938 ft 235 kts 96°
2026-04-30 15:14 47.62663 7.17235 6952 ft 238 kts 128°
2026-04-30 15:16 47.57582 7.26441 6950 ft 232 kts 127°
2026-04-30 15:17 47.53560 7.33749 6938 ft 226 kts 127°
2026-04-30 15:18 47.48524 7.42829 6962 ft 228 kts 128°
2026-04-30 15:19 47.45522 7.48254 6934 ft 224 kts 128°